Time,TemperatureF,DewpointF,PressureIn,WindDirection,WindDirectionDegrees,WindSpeedMPH,WindSpeedGustMPH,Humidity,HourlyPrecipIn,Conditions,Clouds,dailyrainin,SoftwareType,DateUTC
2013-03-13 00:00:00,34.3,31.1,30.07,NNE,29,0.0,0.0,88,0.00,,---,0.04,VWS V12.07,2013-03-13 04:00:00,
2013-03-13 00:30:00,33.8,30.9,30.06,NNE,30,0.0,0.0,89,0.00,,---,0.04,VWS V12.07,2013-03-13 04:30:00,
2013-03-13 01:00:00,32.2,29.3,30.07,NNE,29,0.0,0.0,89,0.00,,---,0.04,VWS V12.07,2013-03-13 05:00:00,
2013-03-13 01:30:00,31.2,29.1,30.06,NNE,30,0.0,0.0,92,0.00,,---,0.00,VWS V12.07,2013-03-13 05:30:00,
2013-03-13 02:00:00,30.7,28.7,30.06,NNE,29,0.0,0.0,92,0.00,,---,0.00,VWS V12.07,2013-03-13 06:00:00,
2013-03-13 02:30:00,30.1,28.6,30.06,NNE,30,0.0,0.0,94,0.00,,---,0.00,VWS V12.07,2013-03-13 06:30:00,
2013-03-13 03:00:00,30.7,29.4,30.06,NNE,30,0.0,0.0,95,0.00,,---,0.00,VWS V12.07,2013-03-13 07:00:00,
2013-03-13 03:30:00,31.3,30.3,30.06,NNE,30,0.0,0.0,96,0.00,,---,0.00,VWS V12.07,2013-03-13 07:30:00,
2013-03-13 04:00:00,32.1,30.6,30.05,NNE,30,0.0,0.0,94,0.00,,---,0.00,VWS V12.07,2013-03-13 08:00:00,
2013-03-13 04:30:00,31.5,30.0,30.04,NNE,30,0.0,0.0,94,0.00,,---,0.00,VWS V12.07,2013-03-13 08:30:00,
2013-03-13 05:00:00,30.3,28.3,30.04,NNE,30,0.0,0.0,92,0.00,,---,0.00,VWS V12.07,2013-03-13 09:00:00,
2013-03-13 05:30:00,29.8,28.5,30.05,NNE,30,0.0,0.0,95,0.00,,---,0.00,VWS V12.07,2013-03-13 09:30:00,
2013-03-13 06:00:00,28.7,27.2,30.05,NNE,29,0.0,0.0,94,0.00,,---,0.00,VWS V12.07,2013-03-13 10:00:00,
2013-03-13 06:30:00,28.4,27.1,30.07,NNE,30,0.0,0.0,95,0.00,,---,0.00,VWS V12.07,2013-03-13 10:30:00,
2013-03-13 07:00:00,27.9,26.9,30.08,NNE,30,0.0,0.0,96,0.00,,---,0.00,VWS V12.07,2013-03-13 11:00:00,
2013-03-13 07:30:00,27.5,26.5,30.09,NNE,30,0.0,0.0,96,0.00,,---,0.00,VWS V12.07,2013-03-13 11:30:00,
2013-03-13 08:00:00,27.2,26.2,30.10,NNE,29,0.0,0.0,96,0.00,,---,0.00,VWS V12.07,2013-03-13 12:00:00,
2013-03-13 08:30:00,27.5,26.5,30.11,NNE,30,0.0,0.0,96,0.00,,---,0.00,VWS V12.07,2013-03-13 12:30:00,
2013-03-13 09:00:00,28.2,27.5,30.12,NNE,30,0.0,0.0,97,0.00,,---,0.00,VWS V12.07,2013-03-13 13:00:00,
2013-03-13 09:30:00,31.6,30.9,30.12,NNW,348,2.0,2.0,97,0.00,,---,0.00,VWS V12.07,2013-03-13 13:30:00,
2013-03-13 10:30:00,38.2,30.3,30.13,North,11,3.0,9.0,73,0.00,,---,0.00,VWS V12.07,2013-03-13 14:30:00,
2013-03-13 11:00:00,39.5,28.7,30.13,North,5,2.0,10.0,65,0.00,,---,0.00,VWS V12.07,2013-03-13 15:00:00,
2013-03-13 11:30:00,40.9,27.7,30.14,ENE,60,2.0,7.0,59,0.00,,---,0.00,VWS V12.07,2013-03-13 15:30:00,
2013-03-13 12:00:00,41.3,24.5,30.14,NE,42,5.0,11.0,51,0.00,,---,0.00,VWS V12.07,2013-03-13 16:00:00,
2013-03-13 12:30:00,43.5,24.1,30.13,NNW,338,3.0,10.0,46,0.00,,---,0.00,VWS V12.07,2013-03-13 16:30:00,
2013-03-13 13:00:00,44.6,26.1,30.12,NNE,22,7.0,11.0,48,0.00,,---,0.00,VWS V12.07,2013-03-13 17:00:00,
2013-03-13 13:30:00,45.1,24.0,30.12,North,5,3.0,6.0,43,0.00,,---,0.00,VWS V12.07,2013-03-13 17:30:00,
2013-03-13 14:00:00,46.0,24.2,30.12,NNE,14,2.0,7.0,42,0.00,,---,0.00,VWS V12.07,2013-03-13 18:00:00,
2013-03-13 14:30:00,45.4,23.7,30.12,NE,40,1.0,12.0,42,0.00,,---,0.00,VWS V12.07,2013-03-13 18:30:00,
2013-03-13 15:00:00,47.1,22.8,30.10,North,360,3.0,12.0,38,0.00,,---,0.00,VWS V12.07,2013-03-13 19:00:00,
2013-03-13 15:30:00,46.2,23.8,30.10,North,360,4.0,9.0,41,0.00,,---,0.00,VWS V12.07,2013-03-13 19:30:00,
2013-03-13 16:00:00,46.5,21.0,30.10,NE,36,6.0,11.0,36,0.00,,---,0.00,VWS V12.07,2013-03-13 20:00:00,
2013-03-13 16:30:00,44.6,22.4,30.12,NNW,340,2.0,11.0,41,0.00,,---,0.00,VWS V12.07,2013-03-13 20:30:00,
2013-03-13 17:00:00,43.6,20.9,30.12,West,281,3.0,11.0,40,0.00,,---,0.00,VWS V12.07,2013-03-13 21:00:00,
2013-03-13 17:30:00,44.6,21.2,30.13,NNE,16,4.0,8.0,39,0.00,,---,0.00,VWS V12.07,2013-03-13 21:30:00,
2013-03-13 18:00:00,40.6,20.9,30.15,North,360,0.0,3.0,45,0.00,,---,0.00,VWS V12.07,2013-03-13 22:00:00,
2013-03-13 18:30:00,39.5,19.9,30.16,North,355,2.0,5.0,45,0.00,,---,0.00,VWS V12.07,2013-03-13 22:30:00,
2013-03-13 19:00:00,37.6,19.2,30.18,NNE,15,3.0,7.0,47,0.00,,---,0.00,VWS V12.07,2013-03-13 23:00:00,
2013-03-13 19:30:00,36.3,19.0,30.19,North,355,1.0,4.0,49,0.00,,---,0.00,VWS V12.07,2013-03-13 23:30:00,
2013-03-13 20:00:00,35.2,19.4,30.22,North,360,3.0,4.0,52,0.00,,---,0.00,VWS V12.07,2013-03-14 00:00:00,
2013-03-13 20:30:00,34.1,18.8,30.22,North,9,3.0,6.0,53,0.00,,---,0.00,VWS V12.07,2013-03-14 00:30:00,
2013-03-13 21:00:00,32.9,18.9,30.22,NNE,14,0.0,3.0,56,0.00,,---,0.00,VWS V12.07,2013-03-14 01:00:00,
2013-03-13 21:30:00,32.2,18.7,30.21,North,9,2.0,6.0,57,0.00,,---,0.00,VWS V12.07,2013-03-14 01:30:00,
2013-03-13 22:00:00,31.6,18.1,30.22,NNW,334,2.0,5.0,57,0.00,,---,0.00,VWS V12.07,2013-03-14 02:00:00,
2013-03-13 22:30:00,30.7,18.5,30.22,North,5,1.0,5.0,60,0.00,,---,0.00,VWS V12.07,2013-03-14 02:30:00,
2013-03-13 23:00:00,30.0,18.6,30.22,North,11,1.0,8.0,62,0.00,,---,0.00,VWS V12.07,2013-03-14 03:00:00,
2013-03-13 23:30:00,29.7,18.3,30.22,NE,45,5.0,5.0,62,0.00,,---,0.00,VWS V12.07,2013-03-14 03:30:00,